| time (UTC) | temp C | wind direction | speed KPH | gust KPH | rain 1hr cm | rain 24hr cm | rain mn cm | humidity % | barometer mb |
| 20260502212703 | 18 | 227 | 9.7 | 24.1 | 0.00 | 0.00 | 0.00 | 26 | 1011.1 |
| 20260502212014 | 18 | 224 | 6.4 | 20.9 | 0.00 | 0.00 | 0.00 | 26 | 1011.1 |
| 20260502211116 | 18 | 252 | 6.4 | 14.5 | 0.00 | 0.00 | 0.00 | 27 | 1011.3 |
| 20260502210214 | 17 | 247 | 8.0 | 24.1 | 0.00 | 0.00 | 0.00 | 27 | 1011.5 |
| 20260502205403 | 17 | 233 | 8.0 | 16.1 | 0.00 | 0.00 | 0.00 | 26 | 1011.7 |
| 20260502204503 | 17 | 263 | 6.4 | 16.1 | 0.00 | 0.00 | 0.00 | 27 | 1011.8 |
| 20260502203603 | 17 | 248 | 8.0 | 16.1 | 0.00 | 0.00 | 0.00 | 28 | 1012.0 |
| 20260502202703 | 17 | 267 | 6.4 | 17.7 | 0.00 | 0.00 | 0.00 | 26 | 1012.1 |
| 20260502201803 | 17 | 251 | 8.0 | 22.5 | 0.00 | 0.00 | 0.00 | 27 | 1012.3 |
| 20260502200903 | 17 | 261 | 8.0 | 14.5 | 0.00 | 0.00 | 0.00 | 27 | 1012.5 |
| 20260502200214 | 17 | 251 | 9.7 | 20.9 | 0.00 | 0.00 | 0.00 | 27 | 1012.6 |
| 20260502195404 | 16 | 232 | 9.7 | 25.7 | 0.00 | 0.00 | 0.00 | 27 | 1012.9 |
| 20260502194713 | 16 | 245 | 9.7 | 24.1 | 0.00 | 0.00 | 0.00 | 28 | 1013.1 |
| 20260502193603 | 16 | 257 | 6.4 | 11.3 | 0.00 | 0.00 | 0.00 | 28 | 1013.2 |
| 20260502192703 | 16 | 245 | 8.0 | 19.3 | 0.00 | 0.00 | 0.00 | 28 | 1013.4 |
| 20260502192015 | 16 | 244 | 8.0 | 27.4 | 0.00 | 0.00 | 0.00 | 27 | 1013.6 |
| 20260502190903 | 16 | 247 | 9.7 | 20.9 | 0.00 | 0.00 | 0.00 | 28 | 1013.7 |
| 20260502190004 | 16 | 272 | 6.4 | 19.3 | 0.00 | 0.00 | 0.00 | 28 | 1013.9 |
| 20260502185403 | 16 | 270 | 6.4 | 11.3 | 0.00 | 0.00 | 0.00 | 28 | 1014.1 |
| 20260502184503 | 15 | 232 | 6.4 | 12.9 | 0.00 | 0.00 | 0.00 | 27 | 1014.3 |
| 20260502183604 | 15 | 294 | 6.4 | 8.0 | 0.00 | 0.00 | 0.00 | 28 | 1014.4 |
| 20260502182914 | 15 | 251 | 8.0 | 16.1 | 0.00 | 0.00 | 0.00 | 29 | 1014.6 |
| 20260502181803 | 15 | 225 | 6.4 | 11.3 | 0.00 | 0.00 | 0.00 | 28 | 1014.8 |
| 20260502180903 | 14 | 246 | 6.4 | 11.3 | 0.00 | 0.00 | 0.00 | 31 | 1014.8 |
| 20260502163603 | 12 | 236 | 9.7 | 19.3 | 0.00 | 0.00 | 0.00 | 31 | 1016.4 |
| 20260502162703 | 12 | 251 | 6.4 | 17.7 | 0.00 | 0.00 | 0.00 | 37 | 1016.5 |
| 20260502162017 | 12 | 264 | 6.4 | 14.5 | 0.00 | 0.00 | 0.00 | 35 | 1016.5 |
| 20260502161115 | 12 | 292 | 8.0 | 9.7 | 0.00 | 0.00 | 0.00 | 34 | 1016.6 |
| 20260502160217 | 12 | 260 | 8.0 | 17.7 | 0.00 | 0.00 | 0.00 | 34 | 1016.7 |
| 20260502151803 | 12 | 301 | 4.8 | 11.3 | 0.00 | 0.00 | 0.00 | 38 | 1017.0 |
| 20260502150903 | 11 | 275 | 4.8 | 14.5 | 0.00 | 0.00 | 0.00 | 43 | 1017.0 |
| 20260502123815 | 4 | 276 | 3.2 | 8.0 | 0.00 | 0.00 | 0.00 | 62 | 1017.7 |
| 20260502122703 | 3 | 278 | 3.2 | 9.7 | 0.00 | 0.00 | 0.00 | 64 | 1017.7 |
| 20260502122015 | 3 | 288 | 1.6 | 4.8 | 0.00 | 0.00 | 0.00 | 66 | 1017.6 |
| 20260502120903 | 2 | 308 | 0.0 | 3.2 | 0.00 | 0.00 | 0.00 | 67 | 1017.6 |
| 20260502115403 | 2 | 304 | 1.6 | 4.8 | 0.00 | 0.00 | 0.00 | 68 | 1017.5 |
| 20260502114503 | 2 | 309 | 1.6 | 4.8 | 0.00 | 0.00 | 0.00 | 68 | 1017.5 |
| 20260502113603 | 2 | 315 | 0.0 | 3.2 | 0.00 | 0.00 | 0.00 | 67 | 1017.3 |
| 20260502112703 | 2 | 319 | 0.0 | 1.6 | 0.00 | 0.00 | 0.00 | 67 | 1017.3 |
| 20260502111803 | 2 | 323 | 0.0 | 1.6 | 0.00 | 0.00 | 0.00 | 67 | 1017.2 |
| 20260502110903 | 2 | 318 | 1.6 | 3.2 | 0.00 | 0.00 | 0.00 | 67 | 1017.2 |
| 20260502110004 | 2 | 311 | 0.0 | 3.2 | 0.00 | 0.00 | 0.00 | 67 | 1017.3 |
| 20260502105403 | 2 | 312 | 0.0 | 3.2 | 0.00 | 0.00 | 0.00 | 67 | 1017.3 |
| 20260502104503 | 2 | 0 | 0.0 | 0.0 | 0.00 | 0.00 | 0.00 | 66 | 1017.3 |
| 20260502103603 | 2 | 298 | 0.0 | 1.6 | 0.00 | 0.00 | 0.00 | 66 | 1017.3 |
| 20260502102703 | 2 | 295 | 0.0 | 3.2 | 0.00 | 0.00 | 0.00 | 66 | 1017.3 |
| 20260502100903 | 2 | 274 | 1.6 | 3.2 | 0.00 | 0.00 | 0.00 | 66 | 1017.3 |
| 20260502100216 | 2 | 266 | 0.0 | 3.2 | 0.00 | 0.00 | 0.00 | 66 | 1017.2 |
| 20260502090903 | 1 | 290 | 0.0 | 1.6 | 0.00 | 0.00 | 0.00 | 68 | 1017.2 |
| 20260502070903 | 2 | 0 | 0.0 | 0.0 | 0.00 | 0.00 | 0.00 | 68 | 1017.4 |
| 20260502070004 | 2 | 0 | 0.0 | 0.0 | 0.00 | 0.00 | 0.00 | 69 | 1017.4 |
| 20260502065403 | 2 | 0 | 0.0 | 0.0 | 0.00 | 0.00 | 0.00 | 70 | 1017.5 |
| 20260502064504 | 2 | 0 | 0.0 | 0.0 | 0.00 | 0.00 | 0.00 | 70 | 1017.5 |
| 20260502063603 | 2 | 0 | 0.0 | 0.0 | 0.00 | 0.00 | 0.00 | 71 | 1017.6 |
| 20260502062703 | 2 | 0 | 0.0 | 0.0 | 0.00 | 0.00 | 0.00 | 73 | 1017.6 |
| 20260502060903 | 2 | 0 | 0.0 | 0.0 | 0.00 | 0.00 | 0.00 | 73 | 1017.6 |
| 20260502060004 | 2 | 0 | 0.0 | 0.0 | 0.00 | 0.00 | 0.00 | 72 | 1017.6 |
| 20260502055403 | 2 | 0 | 0.0 | 0.0 | 0.00 | 0.00 | 0.00 | 72 | 1017.6 |
| 20260502054503 | 2 | 0 | 0.0 | 0.0 | 0.00 | 0.00 | 0.00 | 73 | 1017.6 |
| 20260502053603 | 2 | 0 | 0.0 | 0.0 | 0.00 | 0.00 | 0.00 | 73 | 1017.6 |
| 20260502052703 | 1 | 0 | 0.0 | 0.0 | 0.00 | 0.00 | 0.00 | 74 | 1017.6 |
| 20260502052014 | 1 | 0 | 0.0 | 0.0 | 0.00 | 0.00 | 0.00 | 74 | 1017.6 |
| 20260502050903 | 1 | 0 | 0.0 | 0.0 | 0.00 | 0.00 | 0.00 | 74 | 1017.6 |
| 20260502050005 | 1 | 0 | 0.0 | 0.0 | 0.00 | 0.00 | 0.00 | 75 | 1017.6 |
| 20260502045403 | 1 | 0 | 0.0 | 0.0 | 0.00 | 0.00 | 0.00 | 74 | 1017.6 |
| 20260502044504 | 1 | 0 | 0.0 | 0.0 | 0.00 | 0.00 | 0.00 | 75 | 1017.5 |
| 20260502043603 | 1 | 0 | 0.0 | 0.0 | 0.00 | 0.00 | 0.00 | 76 | 1017.5 |
| 20260502042703 | 1 | 0 | 0.0 | 0.0 | 0.00 | 0.00 | 0.00 | 76 | 1017.5 |
| 20260502041803 | 2 | 0 | 0.0 | 0.0 | 0.00 | 0.00 | 0.00 | 74 | 1017.5 |
| 20260502040903 | 2 | 0 | 0.0 | 0.0 | 0.00 | 0.00 | 0.00 | 74 | 1017.5 |
| 20260502040214 | 2 | 0 | 0.0 | 0.0 | 0.00 | 0.00 | 0.00 | 75 | 1017.6 |
| 20260502035403 | 2 | 0 | 0.0 | 0.0 | 0.00 | 0.00 | 0.00 | 73 | 1017.6 |
| 20260502034503 | 2 | 0 | 0.0 | 0.0 | 0.00 | 0.00 | 0.00 | 71 | 1017.6 |
| 20260502033603 | 2 | 0 | 0.0 | 0.0 | 0.00 | 0.00 | 0.00 | 70 | 1017.6 |
| 20260502032704 | 2 | 349 | 0.0 | 0.0 | 0.00 | 0.00 | 0.00 | 70 | 1017.6 |
| 20260502031803 | 3 | 349 | 1.6 | 1.6 | 0.00 | 0.00 | 0.00 | 68 | 1017.6 |
| 20260502030903 | 3 | 0 | 0.0 | 0.0 | 0.00 | 0.00 | 0.00 | 63 | 1017.6 |
| 20260502030003 | 3 | 0 | 0.0 | 0.0 | 0.00 | 0.00 | 0.00 | 63 | 1017.6 |
| 20260502025403 | 3 | 0 | 0.0 | 0.0 | 0.00 | 0.00 | 0.00 | 60 | 1017.6 |
| 20260502024503 | 4 | 0 | 0.0 | 0.0 | 0.00 | 0.00 | 0.00 | 59 | 1017.6 |
| 20260502023603 | 5 | 0 | 0.0 | 0.0 | 0.00 | 0.00 | 0.00 | 58 | 1017.6 |
| 20260502022703 | 5 | 0 | 0.0 | 0.0 | 0.00 | 0.00 | 0.00 | 54 | 1017.4 |
| 20260502022016 | 6 | 0 | 0.0 | 0.0 | 0.00 | 0.00 | 0.00 | 52 | 1017.4 |
| 20260502020904 | 6 | 0 | 0.0 | 0.0 | 0.00 | 0.00 | 0.00 | 51 | 1017.3 |
| 20260502020004 | 6 | 0 | 0.0 | 0.0 | 0.00 | 0.00 | 0.00 | 47 | 1017.3 |
| 20260502015617 | 6 | 0 | 0.0 | 0.0 | 0.00 | 0.00 | 0.00 | 44 | 1017.2 |
| 20260502014503 | 7 | 0 | 0.0 | 0.0 | 0.00 | 0.00 | 0.00 | 46 | 1017.0 |
| 20260502013603 | 7 | 349 | 0.0 | 3.2 | 0.00 | 0.00 | 0.00 | 45 | 1017.0 |
| 20260502012703 | 8 | 0 | 0.0 | 0.0 | 0.00 | 0.00 | 0.00 | 43 | 1017.0 |
| 20260502011803 | 8 | 0 | 0.0 | 0.0 | 0.00 | 0.00 | 0.00 | 41 | 1016.9 |
| 20260502010903 | 9 | 6 | 0.0 | 3.2 | 0.00 | 0.00 | 0.00 | 39 | 1016.9 |
| 20260502010004 | 9 | 337 | 0.0 | 0.0 | 0.00 | 0.00 | 0.00 | 35 | 1016.9 |
| 20260502005613 | 10 | 349 | 0.0 | 3.2 | 0.00 | 0.00 | 0.00 | 34 | 1016.9 |
| 20260502004504 | 10 | 291 | 1.6 | 1.6 | 0.00 | 0.00 | 0.00 | 36 | 1016.8 |
| 20260502003817 | 10 | 286 | 0.0 | 3.2 | 0.00 | 0.00 | 0.00 | 35 | 1016.8 |
| 20260502002703 | 10 | 315 | 0.0 | 3.2 | 0.00 | 0.00 | 0.00 | 35 | 1016.8 |
| 20260502002017 | 10 | 328 | 0.0 | 3.2 | 0.00 | 0.00 | 0.00 | 34 | 1016.8 |
| 20260502001114 | 10 | 355 | 3.2 | 8.0 | 0.00 | 0.00 | 0.00 | 31 | 1016.8 |
| 20260502000003 | 10 | 350 | 4.8 | 8.0 | 0.00 | 0.00 | 0.00 | 31 | 1016.7 |
| 20260501235403 | 10 | 6 | 4.8 | 9.7 | 0.00 | 0.00 | 0.00 | 29 | 1016.6 |
| 20260501234503 | 10 | 33 | 4.8 | 9.7 | 0.00 | 0.00 | 0.00 | 29 | 1016.6 |
| 20260501233603 | 10 | 353 | 3.2 | 6.4 | 0.00 | 0.00 | 0.00 | 29 | 1016.6 |
| 20260501232703 | 10 | 353 | 1.6 | 6.4 | 0.00 | 0.00 | 0.00 | 34 | 1016.7 |
| 20260501231803 | 10 | 356 | 3.2 | 8.0 | 0.00 | 0.00 | 0.00 | 31 | 1016.7 |
| 20260501230903 | 10 | 359 | 4.8 | 11.3 | 0.00 | 0.00 | 0.00 | 30 | 1016.7 |
| 20260501230213 | 10 | 348 | 4.8 | 9.7 | 0.00 | 0.00 | 0.00 | 29 | 1016.7 |
| 20260501225403 | 11 | 341 | 6.4 | 14.5 | 0.00 | 0.00 | 0.00 | 28 | 1016.7 |
| 20260501224503 | 12 | 310 | 3.2 | 8.0 | 0.00 | 0.00 | 0.00 | 27 | 1016.6 |
| 20260501223603 | 11 | 301 | 4.8 | 6.4 | 0.00 | 0.00 | 0.00 | 29 | 1016.6 |
| 20260501222704 | 12 | 338 | 6.4 | 14.5 | 0.00 | 0.00 | 0.00 | 27 | 1016.7 |
| 20260501221803 | 12 | 322 | 3.2 | 11.3 | 0.00 | 0.00 | 0.00 | 28 | 1016.6 |
| 20260501220903 | 11 | 3 | 6.4 | 11.3 | 0.00 | 0.00 | 0.00 | 28 | 1016.7 |
| 20260501220003 | 11 | 9 | 6.4 | 19.3 | 0.00 | 0.00 | 0.00 | 28 | 1016.8 |
| 20260501215403 | 11 | 19 | 6.4 | 16.1 | 0.00 | 0.00 | 0.00 | 27 | 1016.7 |
| 20260501214503 | 10 | 357 | 6.4 | 14.5 | 0.00 | 0.00 | 0.00 | 30 | 1016.6 |
| 20260501213603 | 10 | 357 | 4.8 | 9.7 | 0.00 | 0.00 | 0.00 | 29 | 1016.7 |